DELTA 1 DEB, 10177

Orbit data source: Space-Track

DELTA 1 DEB, 10177 is space debris in LEO originally from a launch on Thu, 14 Jul 1977 UTC launched from the Air Force Eastern Test Range (AFETR). Debris objects in space refer to the collection of defunct objects orbiting the Earth. Examples of debris include non-operational satellites, rocket bodies, and fragments generated from explosions, collisions, or faulty payload assembly.

Loading next visibility...
Identifier
10177, 1977-065F
Orbit
LEO
Country
Flag of USUS
Related business
Manufacturer
Unknown
Mission
Spacecraft
Bus & Motor
Unknown
Mass
Unknown
Launch date (UTC)
1977-07-14 (48 years ago)
Launch vehicle
Unknown
Launch site
Air Force Eastern Test Range (AFETR)
Object type
Payload
Rocket body
Debris
Shape & HBR
Unknown shape, 0.1 m
Radar Cross Section
Small (<0.1 m²)

Expand to show TLE details & history
Last TLE update: 13 hours ago

TLE from 13 hours ago
0 DELTA 1 DEB
1 10177U 77065F   25351.58596914  .00008385  00000-0  12642-2 0  9995
2 10177  28.2321  86.7031 0475608 230.2279 125.5459 14.17599357271233
Epoch: 2025-12-17T14:03Z
TLE epoch observation values (Epoch: 2025-12-17T14:03:47.733Z)
Latitude
Longitude
149.30051°
Altitude
1,041.488 km
Speed
7.226 km/s
True Right ascension
05h 46m 48s
True Declination
0° 00' 00"
Sunlit
Object was in full shadow at epoch
Visualization orbit readout
Latitude
Unknown
Longitude
Unknown
Altitude
Unknown
Speed
Unknown
Apparent Right ascension
Unknown
Apparent Declination
Unknown
Sunlit
N/A
Visualization observer readout
Local Sidereal Time
01:29:05
Azimuth
Unknown
Elevation
Unknown
Doppler factor
Unknown
Orbital elements
Apogee altitude
1,180.744 km
Perigee altitude
494.376 km
Semi-major axis
7,215.697 km
Eccentricity
0.04756
Inclination
28.2321°
RAAN
86.7031°
Arg. of periapsis
230.2279°
True anomaly
129.82804°
Mean anomaly
125.5459°
Eccentric anomaly
127.70195°
Mean motion
3.541 °/min
Orbital period
101.67 mins
BSTAR
0.0012642
Loading maneuver chart data...
Computing Atmospheric mass density...

Documentation

Showing up to 5 results
|